Location: Taio
(46.3224°N, 11.0658°E)
Time: 02:57:08
(UTC+01:00)

N. Korean satellite - Visible Passes

Search period start: 15 November 2019 00:00
Search period end: 25 November 2019 00:00
Orbit: 456 x 506 km, 97.2° (Epoch: 14 November)

Date Brightness Start Highest point End Pass type
(mag) Time Alt. Az. Time Alt. Az. Time Alt. Az.
15 Nov 8.4 05:43:29 10° NNE 05:46:56 35° E 05:50:20 10° SSE visible
15 Nov 8.8 17:54:42 10° SSW 17:57:55 30° W 18:01:12 10° NNW visible
16 Nov 9.7 05:18:45 10° NE 05:21:24 18° E 05:24:02 10° SE visible
16 Nov 7.2 17:28:52 10° S 17:32:27 62° W 17:36:07 10° NNW visible
17 Nov 6.6 06:25:54 10° N 06:29:37 69° WNW 06:33:16 10° SSW visible
17 Nov 10.4 18:40:33 10° W 18:40:54 10° W 18:41:14 10° W visible
18 Nov 7.4 06:00:34 10° NNE 06:04:14 57° E 06:07:51 10° S visible
18 Nov 9.6 18:12:33 10° SW 18:15:15 20° W 18:18:00 10° NW visible
19 Nov 8.9 05:35:30 10° NE 05:38:45 28° E 05:41:57 10° SSE visible
19 Nov 8.3 17:46:19 10° SSW 17:49:43 37° W 17:53:11 10° NNW visible
20 Nov 9.9 05:10:58 10° NE 05:13:10 15° E 05:15:21 10° SE visible
20 Nov 7.0 06:43:15 10° N 06:46:47 42° WNW 06:50:15 10° SW visible
20 Nov 6.8 17:20:38 10° S 17:24:16 79° WSW 17:27:59 10° NNW visible
21 Nov 6.6 06:17:43 10° NNE 06:21:27 86° WNW 06:25:06 10° SSW visible
21 Nov 10.1 18:30:56 10° WSW 18:32:37 13° W 18:34:19 10° WNW visible
22 Nov 7.8 05:52:27 10° NNE 05:56:02 45° E 05:59:32 10° S visible
22 Nov 9.2 18:03:59 10° SSW 18:07:00 24° W 18:10:04 10° NW visible
23 Nov 9.2 05:27:30 10° NE 05:30:29 23° E 05:33:26 10° SSE visible
23 Nov 7.8 17:37:56 10° S 17:41:29 47° W 17:45:06 10° NNW visible
24 Nov 10.1 05:03:22 10° ENE 05:04:52 12° E 05:06:22 10° ESE visible
24 Nov 6.7 06:35:00 10° N 06:38:35 52° WNW 06:42:07 10° SSW visible
24 Nov 6.6 17:12:23 10° SSE 17:16:03 83° ENE 17:19:48 10° N visible
